Weather in Nong Khai

Thailand     17°52′57″N   102°44′31″E
temp.,
°C
wind,
m/s
gust,
m/s
humid.,
%
clouds,
%
prec.,
mm/h
press.,
hPa
HPBL,
m
18 april, sun
sun1801:00+24wsw008277 2.8 101228
04:00+24nw118394 0.7 101154
07:00+24ese238494 2.5 1013254
10:00+29ese336294 0.1 1013988
13:00+30nw225798 4.3 10101171
16:00+26ene1180100 4.9 1009122
19:00+25e2284100 5.2 101045
22:00+25ene2287100 0.0 101137
19 april, mon
mon1901:00+24ene118982 0.0 100924
04:00+23nne11895 0.0 100818
07:00+24n128377 0.0 1010157
10:00+29sse226463 0.0 1011929
13:00+29ssw446498 0.0 1008830
16:00+29s236250 0.0 1006591
19:00+28se226536 0.0 100754
22:00+25sse227680 0.3 100829
20 april, tue
tue2001:00+24sse1183100 1.5 100813
04:00+24ese238792 0.4 100871
07:00+25ese238192 0.4 1010188
10:00+30e33612 0.0 1010968
13:00+35se124420 0.0 10071994
16:00+36e223516 0.0 10042432
19:00+26nw71074100 0.7 1007249
22:00+25wnw36794 1.2 1009175
21 april, wed
wed2101:00+25nnw23795 1.3 1008107
04:00+24nnw22842 0.8 100856
07:00+26ene24770 1.0 1010238
10:00+31e21580 0.0 10111029
13:00+36wsw12421 0.0 10071879
16:00+36s23342 0.0 10042447
19:00+33sse34436 0.0 100568
22:00+30w345562 0.5 1008102
22 april, thu
thu2201:00+28e22638 0.5 100649
04:00+27e34700 0.0 100692
07:00+27ene35700 0.0 1009211
10:00+33ese22480 0.0 10091103
13:00+38wsw12341 0.0 10052246
16:00+39s242747 0.0 10013013
19:00+33nw354224 0.3 1003121
22:00+31sse344899 0.8 100572